Location: Mountain_View
(35.6670°N, 81.4000°W)
Time: 10:01:02
(UTC-04:00)

Daily predictions for brighter satellites

Satellite Brightness Start Highest point End
(mag) Time Altitude Azimuth Time Altitude Azimuth Time Altitude Azimuth
Meteor 2-5 Rocket 4.3 19:57:13 10° NNW 20:02:57 68° W 20:08:47 10° S
Meteor 1-4 Rocket 3.4 20:04:02 10° SSE 20:07:01 27° E 20:10:01 10° NNE
Helios 1B rocket 4.1 20:07:38 10° ENE 20:09:45 14° E 20:11:51 10° SE
In-Cosmos 22 4.2 20:06:54 10° N 20:12:04 51° ENE 20:17:10 10° SSE
Spot 2 Rocket 4.3 20:08:20 10° SE 20:12:51 33° ENE 20:17:23 10° N
Lacrosse 4 Rocket 4.4 20:10:53 10° W 20:13:01 14° NW 20:15:09 10° NNW
Cosmos 1378 3.8 20:10:18 10° NNW 20:14:00 62° W 20:17:41 10° S
Lacrosse 5 rocket 3.4 20:13:55 10° N 20:15:41 13° NNE 20:17:26 10° ENE
Cosmos 2344 4.3 20:11:56 10° SW 20:19:29 60° NW 20:27:48 10° NNE
Cosmos 1544 3.1 20:16:12 10° S 20:19:44 54° E 20:23:20 10° NNE
Cosmos 1867 3.5 20:15:40 10° SSW 20:21:05 77° ESE 20:26:33 10° NNE
Cosmos 1076 Rocket 4.2 20:17:37 10° NNE 20:21:25 31° ENE 20:25:11 10° SE
Cosmos 1934 Rocket 4.2 20:15:35 10° S 20:21:42 77° W 20:27:47 10° N
H-2A R/B (2) 2.6 20:19:41 10° WSW 20:22:12 29° S 20:26:56 10° ESE
FENGYUN 3A 3.7 20:17:38 10° SSE 20:22:58 66° ENE 20:28:19 10° N
CZ-2D R/B 4.3 20:19:50 10° SE 20:23:05 26° ENE 20:26:21 10° NNE
Okean 3 Rocket 3.6 20:21:22 10° N 20:25:43 59° E 20:30:05 10° SSE
Cosmos 1805 3.2 20:22:16 10° S 20:26:08 69° E 20:30:00 10° NNE
ALOS 2.2 20:24:18 10° SSE 20:28:58 80° ENE 20:33:39 10° N
Helios 1A 4.3 20:26:17 11° ESE 20:29:04 21° ENE 20:32:12 10° NNE
Cosmos 1833 Rocket 3.4 20:24:51 10° N 20:29:59 35° ENE 20:34:47 11° SE
Envisat 4.5 20:28:31 12° ESE 20:31:13 18° ENE 20:34:36 10° NNE
Abrixas 2.4 20:31:09 10° NW 20:33:57 58° NE 20:35:43 20° ESE
Cosmos 2278 Rocket 3.7 20:31:42 10° SW 20:37:02 41° WNW 20:42:24 10° N
RESURS DK-1 3.9 20:33:38 10° NW 20:37:28 37° WSW 20:41:15 10° S
Tiangong 1 3.0 20:35:27 10° W 20:37:51 22° SW 20:40:12 10° SSE
ATLAS 5 CENTAUR R/B 1.6 20:34:56 10° SSW 20:39:31 74° ESE 20:44:28 10° NE
Cosmos 1125 Rocket 3.6 20:35:52 10° SSW 20:41:03 82° WNW 20:46:18 10° NNE
SeaSat 1 2.4 20:36:40 10° SE 20:41:33 70° ENE 20:46:28 10° NNW
Cosmos 1733 3.8 20:39:09 10° SSE 20:42:39 33° E 20:46:10 10° NNE
Cosmos 1470 3.2 20:40:33 10° SSE 20:44:14 38° E 20:47:56 10° NNE
GPS 2-05 Rocket1 2.8 20:42:38 10° W 20:46:11 85° S 20:48:14 24° E
Geosat 4.1 20:41:55 10° NE 20:46:50 52° ESE 20:51:42 10° S
Cosmos 1048 Rocket 4.0 20:41:49 10° N 20:46:52 57° ENE 20:51:40 11° SSE
Cosmos-2242 3.2 20:42:51 10° SSE 20:46:54 45° E 20:50:58 10° NNE
Cosmos 1766 Rocket 3.8 20:43:51 10° N 20:48:11 47° E 20:52:21 11° SSE
OAO 2 Rocket 4.1 20:43:57 10° SW 20:48:38 36° SSE 20:51:18 22° ESE
GP-B 3.3 20:46:10 10° SSE 20:50:24 46° E 20:54:39 10° N
HJ-1C 4.4 20:49:32 10° S 20:52:49 49° W 20:56:09 10° NNW
Cosmos 2297 4.2 20:49:33 10° SSW 20:55:12 66° WNW 21:00:56 10° NNE
USA 186 2.6 20:58:05 22° NNE 20:58:05 22° NNE 20:59:09 10° N
H-2A R/B 3.0 20:53:53 10° S 20:57:45 71° W 21:01:42 10° NNW
BREEZE-M DEB (TANK) 4.5 20:55:17 10° W 20:58:02 35° NNW 21:04:36 10° NE
Resurs 01 Rocket 1.8 20:55:29 10° S 20:59:53 75° WSW 21:04:19 10° NNW
CZ-4B DEB 4.0 21:01:12 24° NE 21:01:12 24° NE 21:03:10 10° NNE
Cosmos 1340 Rocket 3.3 20:57:53 10° N 21:01:38 38° ENE 21:02:27 34° ESE
ISS -2.1 21:07:11 10° W 21:10:09 31° NW 21:12:45 12° NNE
Cosmos 2082 Rocket 2.1 21:04:38 10° NNW 21:10:21 88° ENE 21:14:42 18° SSE
Cosmos 2100 Rocket 3.9 21:06:57 10° S 21:13:14 78° E 21:19:37 10° N
Meteor 1-29 2.8 21:11:52 10° NNE 21:15:21 69° E 21:16:41 35° S
SAR-Lupe-4 3.4 21:16:29 41° SSE 21:17:39 88° ENE 21:21:16 10° NNW
Cosmos 1743 Rocket 3.8 21:15:02 10° N 21:19:20 47° E 21:19:41 46° E
Meteor 1-16 Rocket 4.4 21:13:52 10° SSE 21:19:27 50° E 21:25:08 10° NNE
Cosmos 1500 Rocket 4.5 21:16:22 10° NNE 21:19:25 30° NE 21:19:25 30° NE
Cosmos 1271 Rocket 3.3 21:19:33 10° SSW 21:23:31 59° W 21:27:30 10° N
COSMOS 2487 3.4 21:21:43 10° NNW 21:25:09 46° WSW 21:26:45 26° SSW
Aurora 2 Rocket 4.2 21:21:19 10° WSW 21:27:36 30° S 21:28:56 27° SSE
Cosmos 2251 Rocket 4.0 21:23:27 10° N 21:28:28 40° ENE 21:28:42 40° ENE
H-2A R/B 4.2 21:23:02 10° WSW 21:29:02 63° S 22:44:43 10° ESE
H-2A R/B 4.2 21:23:01 10° WSW 21:29:02 63° S 22:44:43 10° ESE
H-2A R/B 4.2 21:23:01 10° WSW 21:29:03 63° S 22:44:43 10° ESE
H-2A R/B 4.2 21:23:02 10° WSW 21:29:03 63° S 22:44:43 10° ESE
Cosmos 1674 3.8 21:30:21 10° NNW 21:33:58 43° W 21:36:15 20° SSW
SAR-Lupe-1 4.5 21:36:02 54° SW 21:36:24 58° WSW 21:39:56 10° NNW
USA 215 3.1 21:30:22 10° NE 21:36:54 70° SE 21:43:23 10° SW
Cosmos 1802 Rocket 3.9 21:30:55 10° S 21:37:03 86° W 21:43:15 10° N
Cosmos 1939 Rocket 3.1 21:42:56 65° N 21:42:56 65° N 21:46:34 10° N
Cosmos 2151 4.5 21:39:56 10° N 21:42:00 26° NNE 21:42:00 26° NNE
Helios 1B rocket 3.8 21:41:22 10° N 21:45:12 38° WNW 21:49:00 10° SW
SJ-11-01 4.2 21:48:14 70° S 21:48:44 82° WSW 21:53:29 10° NNW
Cosmos 1842 Rocket 3.7 21:50:28 71° WSW 21:50:41 73° W 21:55:05 10° N
Lacrosse 5 rocket 2.4 21:51:35 10° NW 21:54:09 40° NW 21:54:09 40° NW
Cosmos 2369 Rocket 4.1 22:01:47 17° NNE 22:01:47 17° NNE 22:03:02 10° NNE
Cosmos 494 Rocket 4.0 21:54:27 10° NNW 21:59:02 70° N 21:59:02 70° N
Gblst 52 Del rocket 4.4 22:00:16 10° WSW 22:06:15 67° NW 22:07:38 49° NNE
Envisat 3.8 22:08:43 40° SW 22:09:50 46° W 22:14:43 10° NNW
Cosmos 1833 Rocket 4.4 22:09:02 10° NW 22:13:42 27° WSW 22:16:33 18° SW
ERS-1 Rocket 3.8 22:23:16 49° NW 22:23:16 49° NW 22:27:01 10° NNW
H-2A R/B 4.1 22:31:01 19° NNE 22:31:01 19° NNE 22:32:34 10° N
CZ-3 Stage 3 3.4 22:18:03 10° W 22:37:49 54° SSW 22:37:49 54° SSW
